[[{"header":{"parameterUnit":"m.s-1","parameterCategory":1,"la1":30.2991,"la2":30.254,"lo1":-89.0895,"lo2":-89.0444,"dy":0.0017,"dx":0.0017,"nx":28,"ny":28,"refTime":"2024-05-14T21:00:00:Z","depth":0,"parameterNumber":2,"parameterNumberName":"U-component_of_WINDS"},"data":[0,0,0,0,0,0,0,0,0,0,0,0,0,0,0,0,0,0,0,0,0,0,0,0,0,0,0,0,0,0,0,0,0,0,0,0,0,0,0,0,0,0,0,0,0,0,0,0,0,0,0,0,0,0,0,0,0,0,2.0125,2.0126,0,2.0262,2.0263,2.0265,2.0299,2.0298,2.0297,2.0296,2.0443,2.0447,2.0452,0,0,0,0,0,0,0,0,0,0,0,0,0,1.9898,1.9902,2.0125,2.0126,2.0128,2.0262,2.0263,2.0265,2.0299,2.0298,2.0296,2.0295,2.0441,2.0447,2.0453,0,0,0,0,0,0,0,0,0,0,0,0,0,2.0012,1.9904,2.0124,2.0161,2.0165,2.0261,2.0264,2.0266,2.0299,2.0298,2.0296,2.0295,2.0439,2.0446,2.0453,2.0525,0,0,2.0475,2.0478,0,0,0,0,0,0,0,0,2.0006,2.0021,2.0154,2.0158,2.0164,2.0262,2.0238,2.0353,2.0299,2.0248,2.0296,2.0294,2.0384,2.0396,2.0425,2.0532,2.0538,2.0476,2.048,2.0483,2.0485,0,0,0,0,0,0,0,1.9998,2.0015,2.0179,2.0156,2.0162,2.0172,2.0187,2.026,2.0323,2.0253,2.0255,2.0271,2.0387,2.0418,2.0428,2.054,2.0476,2.0482,2.0486,2.0489,2.0714,2.0716,0,0,0,0,0,0,1.9983,2.0008,2.0175,2.0183,2.0079,2.0177,2.0194,2.0232,2.0322,2.0334,2.0272,2.0272,2.0406,2.042,2.0434,2.0523,2.0483,2.049,2.0494,2.0713,2.0715,2.0716,0,0,0,0,0,0,1.9978,1.9997,2.0169,2.0096,2.0119,2.0183,2.0225,2.0235,2.0266,2.0336,2.0348,2.0292,2.0406,2.0424,2.0502,2.0529,2.0493,2.05,2.0711,2.0713,2.0715,2.0703,0,0,0,0,0,0,1.9971,1.9995,2.0021,2.0097,2.0123,2.0233,2.0227,2.0239,2.0277,2.0279,2.0358,2.037,2.0406,2.0491,2.0509,2.0538,2.0505,2.0708,2.0712,2.0715,2.0702,2.0705,2.0708,0,0,0,0,0,1.9963,2.0014,2.0023,2.0043,2.0157,2.0234,2.025,2.0288,2.0279,2.0307,2.0353,2.0367,2.0523,2.0499,2.0519,2.0551,2.0707,2.0711,2.0714,2.07,2.0704,2.0708,0,0,0,0,0,0,1.9943,2.0024,2.0035,2.0111,2.0165,2.024,2.0276,2.0292,2.0351,2.035,2.0398,2.0415,2.049,2.0529,2.05,2.0625,2.0615,2.0623,2.0597,2.0602,2.0605,2.0594,2.0511,0,0,0,0,0,1.9946,2.0001,2.007,2.0131,2.0158,2.0212,2.0248,2.0272,2.0331,2.0355,2.0406,2.0464,2.0526,2.0567,2.0628,2.0708,2.0726,2.074,2.0743,2.0745,2.0752,2.0797,2.0805,2.0729,2.0729,2.0729,0,0,1.9956,2.0008,2.0039,2.0129,2.0173,2.023,2.0231,2.0292,2.0335,2.0365,2.0441,2.048,2.0549,2.0628,2.0666,2.0663,2.0777,2.075,2.0752,2.0757,2.0802,2.0809,2.0815,2.0731,2.0731,2.0731,0,0,2.0002,2.0046,2.0102,2.0146,2.0213,2.0249,2.0263,2.0335,2.0362,2.0438,2.0462,2.0516,2.0622,2.0669,2.0707,2.0772,2.0788,2.0791,2.0808,2.0852,2.0858,2.0864,2.0887,2.0894,2.0797,2.0797,2.0797,0,2.0006,2.0091,2.0129,2.0188,2.0227,2.0255,2.0312,2.0355,2.0439,2.0466,2.0461,2.0594,2.0643,2.0733,2.0749,2.0779,2.0797,2.0782,2.0854,2.086,2.0865,2.0888,2.0897,2.0797,2.0797,2.0797,2.0797,0,2.0092,2.0151,2.0188,2.0266,2.031,2.0368,2.0417,2.0457,2.0478,2.0515,2.0594,2.0653,2.0726,2.075,2.0772,2.0844,2.084,2.0844,2.0834,2.0872,2.0894,2.0903,2.0797,2.0797,2.0797,2.0797,0,0,2.0129,2.0227,2.024,2.0276,2.0353,2.04,2.046,2.0529,2.0563,2.0621,2.0673,2.0762,2.0766,2.0809,2.0838,2.0876,2.0924,2.0876,2.0878,2.0882,2.1007,2.1003,2.1013,2.0935,2.0937,2.0938,2.1001,0,2.0184,2.029,2.0326,2.0414,2.0469,2.0497,2.055,2.0603,2.064,2.0694,2.0736,2.0797,2.0798,2.0824,2.0863,2.0909,2.095,2.0906,2.0986,2.0988,2.0967,2.1024,2.1021,2.1077,2.101,2.1012,2.1013,0,2.0263,2.0319,2.0412,2.0481,2.0506,2.0552,2.0619,2.067,2.0732,2.0756,2.0804,2.0829,2.0895,2.0882,2.0975,2.0944,2.0979,2.1007,2.101,2.1019,2.1002,2.1035,2.1096,2.1105,2.1027,2.1026,2.1025,0,2.0279,2.0379,2.0447,2.0478,2.056,2.0592,2.0629,2.0689,2.0729,2.0789,2.0815,2.0882,2.0919,2.0972,2.1016,2.1002,2.1104,2.1095,2.1127,2.1126,2.1147,2.1145,2.1215,2.117,2.117,2.117,2.117,0,2.0337,2.0393,2.0456,2.0498,2.0562,2.0605,2.0667,2.0706,2.076,2.0811,2.0841,2.0889,2.0944,2.1,2.1035,2.1106,2.1123,2.1146,2.1154,2.1143,2.114,2.1166,2.1163,2.1172,2.1172,2.1172,2.1171,0,2.0366,2.0411,2.0487,2.0559,2.0578,2.0622,2.0685,2.0728,2.0766,2.083,2.0848,2.0909,2.0976,2.1025,2.1113,2.1137,2.1213,2.1222,2.1191,2.1195,2.1225,2.1221,2.1314,2.1329,2.1274,2.1275,2.1275,0,2.04,2.0443,2.0519,2.0554,2.059,2.0647,2.0687,2.0732,2.0773,2.0847,2.0881,2.095,2.1008,2.1115,2.1168,2.1235,2.1246,2.1274,2.1256,2.1243,2.1246,2.1243,2.1247,2.1276,2.1276,2.1277,2.1277,0,2.0454,2.0474,2.0529,2.0593,2.0639,2.0692,2.0746,2.0774,2.0828,2.0873,2.0941,2.0986,2.1074,2.1143,2.1216,2.1256,2.1276,2.1282,2.1293,2.1281,2.1262,2.1272,2.1197,2.128,2.1279,2.1279,2.1279,2.1279,2.0486,2.0526,2.0585,2.0647,2.0691,2.074,2.0784,2.0827,2.0884,2.0957,2.0981,2.1052,2.1115,2.1214,2.1255,2.1312,2.1312,2.1328,2.1332,2.1335,2.1334,2.1253,2.1326,2.1326,2.1326,2.1326,2.1326,0,2.0542,2.0581,2.0637,2.071,2.0759,2.0771,2.0831,2.0872,2.0933,2.0988,2.1044,2.1123,2.1189,2.1247,2.1317,2.1352,2.1363,2.1369,2.1367,2.1376,2.1331,2.1314,2.1359,2.1359,2.1359,2.1359,2.1359,2.1359,2.0576,2.0644,2.0671,2.0762,2.0802,2.0869,2.0903,2.0949,2.0993,2.1079,2.1134,2.1171,2.1228,2.1302,2.1365,2.138,2.1405,2.1408,2.1426,2.1383,2.1379,2.1375,2.136,2.1413,2.1413,2.1466,2.1467,2.1467]},{"header":{"parameterUnit":"m.s-1","parameterCategory":1,"la1":30.2991,"la2":30.254,"lo1":-89.0895,"lo2":-89.0444,"dy":0.0017,"dx":0.0017,"nx":28,"ny":28,"refTime":"2024-05-14T21:00:00:Z","depth":0,"parameterNumber":3,"parameterNumberName":"V-component_of_WINDS"},"data":[0,0,0,0,0,0,0,0,0,0,0,0,0,0,0,0,0,0,0,0,0,0,0,0,0,0,0,0,0,0,0,0,0,0,0,0,0,0,0,0,0,0,0,0,0,0,0,0,0,0,0,0,0,0,0,0,0,0,4.1536,4.1538,0,4.1684,4.1685,4.1687,4.1743,4.1743,4.1743,4.1742,4.1892,4.1896,4.1901,0,0,0,0,0,0,0,0,0,0,0,0,0,4.1302,4.1306,4.1536,4.1538,4.154,4.1683,4.1685,4.1687,4.1743,4.1743,4.1742,4.1742,4.1891,4.1896,4.1901,0,0,0,0,0,0,0,0,0,0,0,0,0,4.1422,4.1307,4.1536,4.1585,4.1591,4.1683,4.1685,4.1688,4.1744,4.1743,4.1742,4.1742,4.1889,4.1895,4.1902,4.1955,0,0,4.1922,4.1925,0,0,0,0,0,0,0,0,4.1415,4.143,4.1576,4.1582,4.1589,4.1695,4.1658,4.1778,4.1744,4.1686,4.1742,4.1741,4.1827,4.1839,4.1868,4.1963,4.1969,4.1923,4.1927,4.193,4.1931,0,0,0,0,0,0,0,4.1406,4.1424,4.1594,4.1578,4.1586,4.1599,4.1616,4.1681,4.1758,4.1691,4.1695,4.1712,4.183,4.1861,4.1872,4.1971,4.1922,4.1928,4.1932,4.1935,4.2118,4.2119,0,0,0,0,0,0,4.139,4.1417,4.159,4.1599,4.1498,4.1604,4.1622,4.1661,4.1757,4.1772,4.1712,4.1714,4.185,4.1864,4.1877,4.1947,4.1929,4.1936,4.1939,4.2117,4.2118,4.2119,0,0,0,0,0,0,4.1385,4.1405,4.1584,4.1509,4.1533,4.1609,4.1652,4.1664,4.1695,4.1774,4.1788,4.173,4.185,4.1868,4.1936,4.1953,4.1939,4.1945,4.2116,4.2118,4.2119,4.2086,0,0,0,0,0,0,4.1378,4.1403,4.1424,4.1509,4.1537,4.164,4.1653,4.1668,4.1707,4.171,4.1794,4.1807,4.1851,4.1926,4.1942,4.1961,4.195,4.2115,4.2117,4.2119,4.2086,4.2086,4.2086,0,0,0,0,0,4.1369,4.1408,4.1425,4.1445,4.1565,4.1641,4.1657,4.1707,4.1708,4.173,4.178,4.1804,4.1948,4.1932,4.1951,4.1973,4.2114,4.2116,4.2118,4.2086,4.2086,4.2086,0,0,0,0,0,0,4.1323,4.1421,4.144,4.1508,4.1566,4.165,4.168,4.1705,4.1764,4.1765,4.1824,4.1842,4.1906,4.1946,4.1927,4.203,4.2033,4.2039,4.2001,4.2002,4.2002,4.1991,4.1955,0,0,0,0,0,4.132,4.1374,4.1457,4.1509,4.1537,4.1603,4.1638,4.1672,4.1734,4.1759,4.1814,4.1873,4.1932,4.1969,4.2027,4.2092,4.2111,4.2116,4.2116,4.2116,4.212,4.2158,4.2161,4.2126,4.2126,4.2126,0,0,4.1316,4.1376,4.1406,4.1501,4.155,4.1604,4.1623,4.168,4.1721,4.1767,4.1835,4.1878,4.1948,4.2014,4.2046,4.205,4.2134,4.2118,4.2118,4.2123,4.2161,4.2164,4.2167,4.2128,4.2127,4.2127,0,0,4.1336,4.1387,4.1436,4.1485,4.1559,4.1602,4.1614,4.1695,4.1726,4.1795,4.1831,4.188,4.198,4.2029,4.2066,4.2105,4.213,4.2122,4.2123,4.2159,4.2162,4.2165,4.2179,4.2184,4.2126,4.2126,4.2126,0,4.1321,4.1405,4.1458,4.1513,4.1553,4.1598,4.1648,4.1693,4.1782,4.1809,4.1811,4.1938,4.1988,4.2067,4.2076,4.2105,4.2121,4.2113,4.2157,4.2161,4.2164,4.2178,4.2184,4.2125,4.2125,4.2125,4.2125,0,4.1383,4.144,4.1471,4.1556,4.16,4.1652,4.1713,4.1751,4.1781,4.1824,4.1894,4.1957,4.2028,4.205,4.2079,4.2133,4.2133,4.2146,4.215,4.2165,4.218,4.2186,4.2123,4.2124,4.2124,4.2124,0,0,4.1377,4.1492,4.1502,4.1542,4.1627,4.1672,4.1726,4.1797,4.1829,4.1888,4.1936,4.2019,4.2032,4.2074,4.211,4.2141,4.2169,4.2151,4.2153,4.2152,4.2233,4.2224,4.2229,4.2186,4.2187,4.2188,4.2228,0,4.1409,4.1508,4.1557,4.1635,4.1689,4.1733,4.178,4.1837,4.188,4.1931,4.1978,4.2037,4.2048,4.2075,4.2108,4.2158,4.2186,4.2156,4.2231,4.2233,4.2212,4.2237,4.2227,4.2261,4.2234,4.2235,4.2235,0,4.1458,4.1519,4.1602,4.1681,4.1706,4.1747,4.1816,4.1865,4.1931,4.196,4.2008,4.2043,4.2102,4.2101,4.2184,4.2162,4.2196,4.2225,4.2228,4.2237,4.2235,4.2247,4.2273,4.2278,4.2245,4.2244,4.2243,0,4.1446,4.1548,4.1611,4.1644,4.1738,4.1766,4.1806,4.1872,4.1912,4.1972,4.1998,4.2064,4.2101,4.2151,4.2203,4.2198,4.2281,4.2285,4.2307,4.2306,4.2323,4.2321,4.2355,4.2343,4.2343,4.2343,4.2343,0,4.1476,4.1526,4.1607,4.1646,4.1703,4.1759,4.1814,4.1857,4.1915,4.1964,4.2005,4.205,4.2115,4.2168,4.2209,4.2272,4.2288,4.2313,4.2323,4.2309,4.2306,4.2332,4.2332,4.2344,4.2344,4.2344,4.2343,0,4.1472,4.1529,4.1601,4.1684,4.1706,4.1745,4.1816,4.1856,4.19,4.1961,4.1978,4.2048,4.2112,4.2169,4.2254,4.2282,4.2346,4.2359,4.2324,4.233,4.2349,4.2347,4.2401,4.2412,4.2392,4.2392,4.2392,0,4.1488,4.1527,4.1615,4.165,4.169,4.1747,4.1788,4.1845,4.1885,4.1964,4.1994,4.2062,4.2119,4.222,4.2278,4.2344,4.2359,4.2373,4.2369,4.2354,4.236,4.2357,4.2362,4.2373,4.2373,4.2373,4.2373,0,4.1509,4.1536,4.1593,4.1661,4.1708,4.1764,4.1821,4.1847,4.1915,4.1959,4.2026,4.207,4.2157,4.2224,4.2296,4.2338,4.2367,4.2374,4.2383,4.2369,4.2348,4.2361,4.2324,4.2372,4.2372,4.2372,4.2373,4.2373,4.1516,4.1553,4.1621,4.1684,4.1733,4.1785,4.1827,4.1877,4.1933,4.2009,4.2039,4.2107,4.2173,4.2273,4.2316,4.237,4.2375,4.2387,4.2391,4.2393,4.2391,4.2339,4.2383,4.2383,4.2383,4.2383,4.2384,0,4.1541,4.1587,4.1644,4.1722,4.1772,4.1795,4.1859,4.1899,4.1958,4.2018,4.2073,4.215,4.2216,4.2279,4.2348,4.238,4.2395,4.2396,4.2394,4.2404,4.2382,4.2368,4.2383,4.2383,4.2383,4.2383,4.2383,4.2383,4.1559,4.1623,4.1657,4.1747,4.1793,4.186,4.1895,4.1943,4.1991,4.2075,4.213,4.2171,4.2233,4.2307,4.2368,4.2385,4.2409,4.2406,4.2427,4.2406,4.2405,4.2405,4.2392,4.2411,4.2411,4.2445,4.2445,4.2445]}]]